TimeEST,TemperatureF,Dew PointF,Humidity,Sea Level PressureIn,VisibilityMPH,Wind Direction,Wind SpeedMPH,Gust SpeedMPH,PrecipitationIn,Events,Conditions,WindDirDegrees,DateUTC
12:54 AM,21.9,18.0,85,30.62,9.0,Calm,Calm,-,N/A,,Clear,0,2012-11-19 05:54:00
1:54 AM,21.0,17.1,85,30.62,10.0,Calm,Calm,-,N/A,,Clear,0,2012-11-19 06:54:00
2:54 AM,19.9,17.1,89,30.61,9.0,Calm,Calm,-,N/A,,Clear,0,2012-11-19 07:54:00
3:54 AM,18.0,16.0,92,30.61,9.0,Calm,Calm,-,N/A,,Clear,0,2012-11-19 08:54:00
4:54 AM,19.9,16.0,85,30.61,8.0,Calm,Calm,-,N/A,,Clear,0,2012-11-19 09:54:00
5:54 AM,18.0,15.1,88,30.60,9.0,Calm,Calm,-,N/A,,Clear,0,2012-11-19 10:54:00
6:54 AM,18.0,15.1,88,30.61,8.0,Calm,Calm,-,N/A,,Clear,0,2012-11-19 11:54:00
7:54 AM,19.9,18.0,92,30.59,8.0,Calm,Calm,-,N/A,,Clear,0,2012-11-19 12:54:00
8:54 AM,26.1,21.9,84,30.57,7.0,Calm,Calm,-,N/A,,Clear,0,2012-11-19 13:54:00
9:54 AM,33.1,27.0,78,30.55,10.0,Calm,Calm,-,N/A,,Clear,0,2012-11-19 14:54:00
10:54 AM,37.9,28.0,68,30.52,10.0,Calm,Calm,-,N/A,,Clear,0,2012-11-19 15:54:00
11:54 AM,42.1,27.0,55,30.49,10.0,Calm,Calm,-,N/A,,Clear,0,2012-11-19 16:54:00
12:54 PM,45.0,26.1,48,30.45,10.0,Calm,Calm,-,N/A,,Clear,0,2012-11-19 17:54:00
1:54 PM,46.9,24.1,41,30.42,10.0,Calm,Calm,-,N/A,,Clear,0,2012-11-19 18:54:00
2:54 PM,46.0,24.1,42,30.41,10.0,Calm,Calm,-,N/A,,Clear,0,2012-11-19 19:54:00
3:54 PM,39.9,25.0,55,30.40,10.0,Calm,Calm,-,N/A,,Clear,0,2012-11-19 20:54:00
4:54 PM,34.0,24.1,67,30.40,10.0,Calm,Calm,-,N/A,,Clear,0,2012-11-19 21:54:00
5:54 PM,27.0,21.9,81,30.40,10.0,Calm,Calm,-,N/A,,Clear,0,2012-11-19 22:54:00
6:54 PM,28.0,23.0,81,30.39,10.0,Calm,Calm,-,N/A,,Clear,0,2012-11-19 23:54:00
7:54 PM,25.0,21.9,88,30.38,10.0,Calm,Calm,-,N/A,,Clear,0,2012-11-20 00:54:00
8:54 PM,26.1,21.9,84,30.37,10.0,Calm,Calm,-,N/A,,Clear,0,2012-11-20 01:54:00
10:54 PM,24.1,19.9,84,30.33,9.0,Calm,Calm,-,N/A,,Clear,0,2012-11-20 03:54:00
11:54 PM,23.0,19.0,85,30.32,9.0,Calm,Calm,-,N/A,,Clear,0,2012-11-20 04:54:00